Tracking 17145 objects as of 30-May-2015
HD Live streaming from Space Station

SPOT 2

Track SPOT 2 now!
10-day predictions
SPOT 2 is classified as:


NORAD ID: 20436
Int'l Code: 1990-005A
Perigee: 577.9 km
Apogee: 786.5 km
Inclination: 98.7 °
Period: 98.3 minutes
Semi major axis: 7053 km
RCS: 6.4022 m2 (large)
Launch date: January 22, 1990
Source: France (FR)

Nearing retirement; earth imaging for cartography, defence, agriculture, identifying cadastral parcels, urban planning, telecommunications, the environment, disaster management and mitigation and renewable resources.
Your satellite tracking list
Your tracking list is empty





NASA's NSSDC Master Catalog

Two Line Element Set (TLE):
1 20436U 90005A   15150.44239159  .00000311  00000-0  58607-4 0  9993
2 20436 098.7284 004.8490 0147923 062.5846 299.0319 14.65623131323347

Source of the keplerian elements: AFSPC

N2YO: 262